Weather History for Westfield, MA

Change the Weather History Date:

Tuesday, July 2, 2013

  Actual Average Record
Temperature  
Mean Temperature 78 °F -  
Max Temperature 84 °F 81 °F 93 °F (2002)
Min Temperature 73 °F 57 °F 44 °F (2007)
Cooling Degree Days 14    
Growing Degree Days 28 (Base 50)    
Moisture  
Dew Point 72 °F    
Average Humidity 87    
Maximum Humidity 94    
Minimum Humidity 67    
Precipitation  
Precipitation 0.00 in - - ()
Sea Level Pressure  
Sea Level Pressure 30.11 in    
Wind  
Wind Speed 7 mph (South)    
Max Wind Speed 15 mph    
Max Gust Speed 22 mph    
Visibility 10 miles    
Events Rain    
Averages and records for this station are not official NWS values.
T = Trace of Precipitation, MM = Missing Value Source: NWS Daily Summary

Daily Weather History Graph

Daily Weather History Graph

Search for Another Location

Airport:

Trip Planner

Search our weather history database for the weather conditions in past years. The results will help you decide how hot, cold, wet, or windy it might be!

Date:

Astronomy

Jul. 02, 2013 Rise Set
Actual Time 5:19 AM EDT 8:30 PM EDT
Civil Twilight 4:44 AM EDT 9:04 PM EDT
Nautical Twilight 4:00 AM EDT 9:48 PM EDT
Astronomical Twilight 3:07 AM EDT 10:41 PM EDT
Moon 1:23 AM EDT (7/2) 3:39 PM EDT (7/2)
Length of Visible Light 16h 20m
Length of Day
15h 11m
Waning Crescent, 26% of the Moon is Illuminated
Jul 2
Waning Crescent
Jul 8
New
Jul 15
First Quarter
Jul 22
Full
Jul 29
Last Quarter

Hourly Weather History & Observations

Time (EDT) Temp. Heat Index Dew Point Humidity Pressure Visibility Wind Dir Wind Speed Gust Speed Precip Events Conditions
12:45 AM 73.4 °F - 69.8 °F 88% 30.06 in 9.0 mi South 5.8 mph - N/A   Overcast
12:53 AM 73.0 °F - 71.1 °F 93% 30.06 in 9.0 mi South 4.6 mph - N/A   Overcast
1:45 AM 73.4 °F - 71.6 °F 94% 30.07 in 10.0 mi South 8.1 mph - N/A   Overcast
1:53 AM 73.0 °F - 71.1 °F 93% 30.06 in 10.0 mi South 8.1 mph - N/A   Mostly Cloudy
2:49 AM 73.4 °F - 71.6 °F 94% 30.07 in 9.0 mi South 5.8 mph - N/A   Overcast
2:53 AM 73.0 °F - 71.1 °F 93% 30.07 in 9.0 mi South 5.8 mph - N/A   Overcast
3:50 AM 73.4 °F - 71.6 °F 94% 30.08 in 10.0 mi South 4.6 mph - N/A   Overcast
3:53 AM 73.0 °F - 71.1 °F 93% 30.07 in 10.0 mi SSE 3.5 mph - N/A   Overcast
4:00 AM 73.4 °F - 71.6 °F 94% 30.08 in 10.0 mi SSE 4.6 mph - N/A   Overcast
4:09 AM 73.4 °F - 71.6 °F 94% 30.08 in 10.0 mi SSE 4.6 mph - N/A   Overcast
4:33 AM 73.4 °F - 71.6 °F 94% 30.08 in 10.0 mi SSE 6.9 mph - N/A   Overcast
4:41 AM 73.4 °F - 71.6 °F 94% 30.08 in 9.0 mi SSE 6.9 mph - N/A   Overcast
4:53 AM 73.0 °F - 71.1 °F 93% 30.08 in 9.0 mi SSE 5.8 mph - N/A   Overcast
5:01 AM 73.4 °F - 71.6 °F 94% 30.09 in 9.0 mi SSE 6.9 mph - N/A   Overcast
5:25 AM 73.4 °F - 71.6 °F 94% 30.09 in 9.0 mi SSE 6.9 mph - N/A   Overcast
5:46 AM 73.4 °F - 71.6 °F 94% 30.09 in 9.0 mi South 5.8 mph - N/A   Overcast
5:53 AM 73.0 °F - 71.1 °F 93% 30.09 in 8.0 mi SSE 4.6 mph - N/A   Overcast
6:03 AM 73.4 °F - 71.6 °F 94% 30.10 in 8.0 mi South 4.6 mph - N/A   Overcast
6:23 AM 73.4 °F - 71.6 °F 94% 30.11 in 8.0 mi South 4.6 mph - 0.00 in Rain Light Rain
6:32 AM 73.4 °F - 71.6 °F 94% 30.11 in 8.0 mi South 5.8 mph - 0.00 in Rain Light Rain
6:53 AM 73.0 °F - 71.1 °F 93% 30.10 in 9.0 mi South 4.6 mph - 0.00 in Rain Light Rain
7:08 AM 73.4 °F - 71.6 °F 94% 30.11 in 10.0 mi South 5.8 mph - 0.00 in   Overcast
7:23 AM 73.4 °F - 71.6 °F 94% 30.11 in 8.0 mi South 5.8 mph - 0.00 in Rain Light Rain
7:53 AM 73.9 °F - 72.0 °F 93% 30.11 in 10.0 mi South 4.6 mph - 0.00 in Rain Light Rain
8:24 AM 75.2 °F - 71.6 °F 89% 30.11 in 10.0 mi South 6.9 mph - 0.00 in   Overcast
8:53 AM 75.0 °F - 72.0 °F 90% 30.11 in 10.0 mi South 9.2 mph - 0.00 in   Overcast
8:58 AM 75.2 °F - 71.6 °F 89% 30.12 in 10.0 mi SSW 9.2 mph - N/A   Overcast
9:07 AM 75.2 °F - 71.6 °F 89% 30.12 in 10.0 mi South 9.2 mph - N/A   Overcast
10:06 AM 75.2 °F - 71.6 °F 89% 30.12 in 10.0 mi South 9.2 mph - N/A   Overcast
10:53 AM 78.1 °F - 72.0 °F 81% 30.12 in 10.0 mi South 10.4 mph - N/A   Scattered Clouds
11:46 AM 78.8 °F - 71.6 °F 78% 30.13 in 10.0 mi South 11.5 mph - N/A   Overcast
11:53 AM 78.1 °F - 71.1 °F 79% 30.13 in 10.0 mi South 9.2 mph - N/A   Overcast
12:53 PM 81.0 °F 85.2 °F 72.0 °F 74% 30.12 in 10.0 mi South 10.4 mph - N/A   Mostly Cloudy
1:53 PM 82.9 °F 88.8 °F 73.0 °F 72% 30.12 in 10.0 mi South 11.5 mph 21.9 mph 0.00 in   Mostly Cloudy
2:53 PM 84.0 °F 90.2 °F 73.0 °F 69% 30.10 in 10.0 mi South 12.7 mph - N/A   Mostly Cloudy
3:53 PM 84.0 °F 89.6 °F 72.0 °F 67% 30.09 in 10.0 mi South 15.0 mph 20.7 mph N/A   Mostly Cloudy
4:53 PM 82.9 °F 88.0 °F 72.0 °F 69% 30.09 in 10.0 mi South 10.4 mph - N/A   Scattered Clouds
5:53 PM 82.0 °F 86.7 °F 72.0 °F 71% 30.09 in 10.0 mi South 11.5 mph - N/A   Mostly Cloudy
6:53 PM 81.0 °F 85.2 °F 72.0 °F 74% 30.11 in 10.0 mi South 10.4 mph - N/A   Scattered Clouds
7:53 PM 80.1 °F 83.6 °F 71.1 °F 74% 30.12 in 10.0 mi South 12.7 mph - N/A   Mostly Cloudy
8:31 PM 78.8 °F - 71.6 °F 78% 30.14 in 10.0 mi South 9.2 mph - 0.00 in   Overcast
8:53 PM 78.1 °F - 71.1 °F 79% 30.14 in 10.0 mi South 11.5 mph - 0.00 in   Overcast
9:45 PM 75.2 °F - 71.6 °F 89% 30.16 in 10.0 mi South 9.2 mph - N/A   Scattered Clouds
9:53 PM 75.9 °F - 71.1 °F 85% 30.16 in 10.0 mi South 9.2 mph - N/A   Scattered Clouds
10:10 PM 75.2 °F - 71.6 °F 89% 30.17 in 10.0 mi South 8.1 mph - N/A   Mostly Cloudy
10:17 PM 75.2 °F - 71.6 °F 89% 30.17 in 10.0 mi South 9.2 mph - N/A   Mostly Cloudy
10:53 PM 75.0 °F - 71.1 °F 87% 30.15 in 10.0 mi South 8.1 mph - 0.00 in Rain Light Rain
11:00 PM 75.2 °F - 71.6 °F 89% 30.16 in 10.0 mi South 6.9 mph - 0.00 in Rain Light Rain
11:53 PM 73.9 °F - 71.1 °F 91% 30.15 in 10.0 mi South 5.8 mph - 0.00 in   Partly Cloudy